Regional Weather Roundup
Issued by NWS Albany, NY

Home | Current Version | Previous Version | Graphics & Text | Print | Product List | Glossary On
Versions: 1 2 3 4 5 6 7 8 9 10 11 12 13 14 15 16 17 18 19 20 21 22 23 24 25 26 27 28
000
ASUS41 KALY 260310
RWRALY

NEW YORK STATE HOURLY WEATHER ROUNDUP
NATIONAL WEATHER SERVICE ALBANY NY
1100 PM EDT WED APR 25 2018

NOTE: "FAIR" INDICATES FEW OR NO CLOUDS BELOW 12,000 FEET WITH NO
SIGNIFICANT WEATHER AND/OR NO OBSTRUCTIONS TO VISIBILITY.

NYZ032-033-038>043-046>054-057>066-NYZ062>081-082-084-260400-
EAST


CITY           SKY/WX    TMP DP  RH WIND       PRES   REMARKS
ALBANY         LGT RAIN  55  52  89 CALM      29.66F FOG
GLENS FALLS    LGT RAIN  52  52 100 N3        29.66F
POUGHKEEPSIE   CLOUDY    57  55  93 SE3       29.64F FOG
NEWBURGH       CLOUDY    57  57 100 CALM      29.67F FOG
MONTGOMERY     CLOUDY    57  56  96 CALM      29.65F FOG
WHITE PLAINS   FOG       54  54 100 CALM      29.65F VSB 1/4
ISLIP          FOG       51  51 100 S8        29.67S VSB 1/4
NEW YORK CITY  FOG       54  52  93 NE3       29.66F VSB 3/4
CENTRAL PARK   CLOUDY    56  55  97 CALM      29.68F FOG
$$

NYZ005>009-017-018-044>046-055-056-260400-
CENTRAL


CITY           SKY/WX    TMP DP  RH WIND       PRES   REMARKS
FULTON         LGT RAIN  48  46  93 W9        29.71S
SYRACUSE       CLOUDY    50  50 100 W8        29.70S
ROME           LGT RAIN  52  52 100 W3        29.69S
ELMIRA         CLOUDY    53  50  89 W6        29.72F
BINGHAMTON     CLOUDY    50  49  96 NW6       29.69F
MONTICELLO     CLOUDY    53  53 100 CALM      29.68F FOG
$$

NYZ026>034-041>043-087-260400-
NORTH


CITY           SKY/WX    TMP DP  RH WIND       PRES   REMARKS
WATERTOWN      LGT RAIN  49  49 100 SW8       29.67F VSB 1/2
FORT DRUM      NOT AVBL
OGDENSBURG     LGT RAIN  54  53  97 CALM      29.65F
MASSENA        CLOUDY    53  53 100 E3        29.67F
SARANAC LAKE   CLOUDY    44  44 100 CALM      29.65F FOG
PLATTSBURGH    RAIN      51  51 100 CALM      29.66F
$$

NYZ001>004-010>016-019>021-085-260400-
WEST


CITY           SKY/WX    TMP DP  RH WIND       PRES   REMARKS
NIAGARA FALLS  CLOUDY    43  38  82 W13       29.80S
BUFFALO        LGT RAIN  42  41  96 W10       29.80S FOG
DUNKIRK        CLOUDY    40  37  89 W12G21    29.86S WCI  33
JAMESTOWN      CLOUDY    38  37  97 W13       29.83F WCI  30
WELLSVILLE     CLOUDY    45  38  76 W18       29.78S
ROCHESTER      LGT RAIN  49  47  93 W13       29.74S
PENN YAN       CLOUDY    52  47  83 W9        29.73F
$$

             KEY
       WCI = WIND CHILL INDEX
       VSB = VISIBILITY
       HX  = HEAT INDEX
$$




USA.gov is the U.S. government's official web portal to all federal, state and local government web resources and services.